When you browse on this site, cookies collect data to enhance your experience and personalize the content and advertising you see.
Visit our Privacy Policy to learn more. By continuing to use the site, you agree to this use of cookies and data.
  • In Spain
  • List of Countries
  • For 7 days
  • Water Temperature
  • Satellite Maps
  • Weather Map
  • Weather Widgets
  • user-avatar
    Login

    Hourly Weather Imphal

    Today, 19 April, Friday

    Time Temperature Precipitation Wind Pressure Humidity
    00:00 +21°C° 0 mm 1 mps 690 mmHg 81%
    01:00 +20°C° 0 mm 1 mps 690 mmHg 82%
    02:00 +20°C° 0 mm 1 mps 690 mmHg 84%
    03:00 +19°C° 0 mm 1 mps 689 mmHg 85%
    04:00 +20°C° 0 mm 1 mps 690 mmHg 83%
    05:00 +20°C° 0 mm 1 mps 690 mmHg 80%
    06:00 +18°C° 0 mm 0 mps 690 mmHg 78%
    07:00 +23°C° 0 mm 1 mps 691 mmHg 62%
    08:00 +27°C° 0 mm 1 mps 692 mmHg 47%
    09:00 +31°C° 0 mm 2 mps 693 mmHg 31%
    10:00 +32°C° 0 mm 2 mps 693 mmHg 29%
    11:00 +34°C° 0 mm 3 mps 692 mmHg 27%
    12:00 +35°C° 0 mm 4 mps 692 mmHg 26%
    13:00 +34°C° 0 mm 4 mps 691 mmHg 26%
    14:00 +34°C° 0 mm 4 mps 691 mmHg 26%
    15:00 +34°C° 0 mm 4 mps 690 mmHg 27%
    16:00 +31°C° 0 mm 3 mps 689 mmHg 33%
    17:00 +29°C° 0 mm 3 mps 689 mmHg 39%
    18:00 +27°C° 0 mm 2 mps 689 mmHg 44%
    19:00 +26°C° 0 mm 2 mps 689 mmHg 49%
    20:00 +24°C° 0 mm 1 mps 690 mmHg 53%
    21:00 +23°C° 0 mm 1 mps 690 mmHg 58%
    22:00 +22°C° 0 mm 1 mps 690 mmHg 59%
    23:00 +22°C° 0 mm 1 mps 690 mmHg 60%

    Tomorrow, 20 April, Saturday

    Time Temperature Precipitation Wind Pressure Humidity
    00:00 +22°C° 0 mm 1 mps 690 mmHg 62%
    01:00 +21°C° 0 mm 1 mps 689 mmHg 63%
    02:00 +21°C° 0 mm 1 mps 689 mmHg 64%
    03:00 +21°C° 0 mm 1 mps 689 mmHg 65%
    04:00 +21°C° 0 mm 1 mps 689 mmHg 66%
    05:00 +21°C° 0 mm 1 mps 689 mmHg 66%
    06:00 +21°C° 0 mm 1 mps 689 mmHg 67%
    07:00 +24°C° 0 mm 1 mps 690 mmHg 55%
    08:00 +28°C° 0 mm 1 mps 691 mmHg 44%
    09:00 +32°C° 0 mm 1 mps 693 mmHg 32%
    10:00 +34°C° 0 mm 2 mps 692 mmHg 29%
    11:00 +34°C° 0 mm 2 mps 692 mmHg 27%
    12:00 +35°C° 0 mm 3 mps 692 mmHg 24%
    13:00 +35°C° 0 mm 3 mps 691 mmHg 24%
    14:00 +34°C° 0 mm 3 mps 690 mmHg 25%
    15:00 +34°C° 0 mm 3 mps 689 mmHg 26%
    16:00 +31°C° 0 mm 2 mps 689 mmHg 32%
    17:00 +29°C° 0 mm 2 mps 689 mmHg 38%
    18:00 +27°C° 0 mm 1 mps 688 mmHg 44%
    19:00 +25°C° 0.2 mm 1 mps 689 mmHg 51%
    20:00 +23°C° 0.2 mm 1 mps 689 mmHg 59%
    21:00 +22°C° 0.2 mm 1 mps 690 mmHg 66%
    22:00 +21°C° 0.2 mm 1 mps 689 mmHg 68%
    23:00 +21°C° 0.2 mm 1 mps 689 mmHg 71%

    Day after tomorrow, 21 April, Sunday

    Time Temperature Precipitation Wind Pressure Humidity
    00:00 +20°C° 0.2 mm 1 mps 689 mmHg 74%
    01:00 +20°C° 0 mm 1 mps 689 mmHg 74%
    02:00 +19°C° 0 mm 1 mps 688 mmHg 75%
    03:00 +19°C° 0 mm 1 mps 688 mmHg 76%
    04:00 +19°C° 0 mm 1 mps 688 mmHg 76%
    05:00 +19°C° 0 mm 1 mps 689 mmHg 76%
    06:00 +17°C° 0 mm 0 mps 689 mmHg 76%
    07:00 +23°C° 0 mm 1 mps 690 mmHg 63%
    08:00 +27°C° 0 mm 1 mps 691 mmHg 50%
    09:00 +30°C° 0 mm 1 mps 692 mmHg 37%
    10:00 +31°C° 0 mm 1 mps 692 mmHg 33%
    11:00 +32°C° 0 mm 2 mps 692 mmHg 29%
    12:00 +34°C° 0 mm 3 mps 691 mmHg 25%
    13:00 +34°C° 0 mm 3 mps 691 mmHg 26%
    14:00 +33°C° 0 mm 3 mps 690 mmHg 27%
    15:00 +33°C° 0 mm 3 mps 689 mmHg 28%
    16:00 +30°C° 0 mm 2 mps 689 mmHg 34%
    17:00 +28°C° 0 mm 2 mps 689 mmHg 39%
    18:00 +26°C° 0 mm 2 mps 688 mmHg 45%
    19:00 +25°C° 0 mm 1 mps 689 mmHg 49%
    20:00 +23°C° 0 mm 1 mps 689 mmHg 52%
    21:00 +22°C° 0 mm 1 mps 690 mmHg 56%
    22:00 +22°C° 0 mm 1 mps 690 mmHg 57%
    23:00 +21°C° 0 mm 1 mps 690 mmHg 58%

    22 April, Monday

    Time Temperature Precipitation Wind Pressure Humidity
    00:00 +21°C° 0 mm 1 mps 690 mmHg 59%
    01:00 +21°C° 0 mm 1 mps 689 mmHg 60%
    02:00 +20°C° 0 mm 1 mps 689 mmHg 61%
    03:00 +20°C° 0 mm 1 mps 689 mmHg 62%
    04:00 +20°C° 0 mm 1 mps 689 mmHg 62%
    05:00 +21°C° 0 mm 1 mps 689 mmHg 62%
    06:00 +21°C° 0 mm 1 mps 690 mmHg 62%
    07:00 +25°C° 0 mm 1 mps 691 mmHg 52%
    08:00 +27°C° 0 mm 0 mps 692 mmHg 42%
    09:00 +31°C° 0 mm 0 mps 693 mmHg 32%
    10:00 +34°C° 0 mm 1 mps 693 mmHg 30%
    11:00 +34°C° 0 mm 1 mps 692 mmHg 28%
    12:00 +36°C° 0 mm 2 mps 692 mmHg 25%
    13:00 +35°C° 0 mm 2 mps 691 mmHg 27%
    14:00 +35°C° 0 mm 2 mps 690 mmHg 28%
    15:00 +34°C° 0 mm 2 mps 690 mmHg 29%
    16:00 +31°C° 0 mm 2 mps 690 mmHg 34%
    17:00 +30°C° 0 mm 1 mps 689 mmHg 39%
    18:00 +28°C° 0 mm 1 mps 689 mmHg 44%
    19:00 +26°C° 0 mm 1 mps 690 mmHg 49%
    20:00 +25°C° 0 mm 1 mps 690 mmHg 53%
    21:00 +23°C° 0 mm 1 mps 690 mmHg 58%
    22:00 +23°C° 0 mm 1 mps 690 mmHg 60%
    23:00 +22°C° 0 mm 1 mps 690 mmHg 62%

    23 April, Tuesday

    Time Temperature Precipitation Wind Pressure Humidity
    00:00 +21°C° 0 mm 1 mps 690 mmHg 64%
    01:00 +21°C° 0 mm 1 mps 690 mmHg 64%
    02:00 +21°C° 0 mm 1 mps 690 mmHg 64%
    03:00 +20°C° 0 mm 1 mps 689 mmHg 65%
    04:00 +21°C° 0 mm 1 mps 690 mmHg 64%
    05:00 +21°C° 0 mm 1 mps 690 mmHg 63%
    06:00 +21°C° 0 mm 1 mps 691 mmHg 62%
    07:00 +25°C° 0 mm 1 mps 692 mmHg 51%
    08:00 +29°C° 0 mm 1 mps 693 mmHg 40%
    09:00 +33°C° 0 mm 1 mps 694 mmHg 29%
    10:00 +34°C° 0 mm 1 mps 694 mmHg 26%
    11:00 +36°C° 0 mm 2 mps 693 mmHg 22%
    12:00 +37°C° 0 mm 2 mps 693 mmHg 19%
    13:00 +37°C° 0 mm 2 mps 692 mmHg 19%
    14:00 +37°C° 0 mm 3 mps 692 mmHg 20%
    15:00 +36°C° 0 mm 3 mps 691 mmHg 21%
    16:00 +34°C° 0 mm 3 mps 691 mmHg 28%
    17:00 +31°C° 0 mm 2 mps 691 mmHg 34%
    18:00 +29°C° 0 mm 1 mps 690 mmHg 41%
    19:00 +27°C° 0 mm 1 mps 691 mmHg 47%
    20:00 +25°C° 0 mm 1 mps 691 mmHg 53%
    21:00 +24°C° 0 mm 1 mps 691 mmHg 60%
    22:00 +23°C° 0 mm 1 mps 691 mmHg 62%
    23:00 +23°C° 0 mm 1 mps 691 mmHg 64%

    24 April, Wednesday

    Time Temperature Precipitation Wind Pressure Humidity
    00:00 +22°C° 0 mm 1 mps 691 mmHg 66%
    01:00 +22°C° 0 mm 1 mps 690 mmHg 65%
    02:00 +21°C° 0 mm 1 mps 690 mmHg 65%
    03:00 +21°C° 0 mm 1 mps 690 mmHg 65%
    04:00 +21°C° 0 mm 1 mps 690 mmHg 64%
    05:00 +22°C° 0 mm 1 mps 691 mmHg 63%
    06:00 +22°C° 0 mm 1 mps 691 mmHg 61%
    07:00 +26°C° 0 mm 1 mps 692 mmHg 51%
    08:00 +30°C° 0 mm 1 mps 694 mmHg 41%
    09:00 +33°C° 0 mm 1 mps 695 mmHg 31%
    10:00 +35°C° 0 mm 1 mps 694 mmHg 27%
    11:00 +36°C° 0 mm 1 mps 694 mmHg 24%
    12:00 +38°C° 0 mm 2 mps 694 mmHg 20%
    13:00 +38°C° 0 mm 2 mps 693 mmHg 21%
    14:00 +37°C° 0 mm 2 mps 692 mmHg 22%
    15:00 +37°C° 0 mm 3 mps 691 mmHg 22%
    16:00 +35°C° 0 mm 2 mps 691 mmHg 28%
    17:00 +32°C° 0 mm 2 mps 690 mmHg 33%
    18:00 +30°C° 0 mm 1 mps 690 mmHg 38%
    19:00 +28°C° 0 mm 1 mps 690 mmHg 42%
    20:00 +26°C° 0 mm 1 mps 691 mmHg 47%
    21:00 +25°C° 0 mm 1 mps 691 mmHg 51%
    22:00 +24°C° 0 mm 1 mps 691 mmHg 53%
    23:00 +24°C° 0 mm 1 mps 691 mmHg 54%
    Show more